Flag for Netherlands Weather past 2 weeks in Amersfoort, Netherlands

Now
36 °F

Broken clouds.


Feels Like: 31 °F
Forecast: 37 / 44 °F
Wind: 6 mph from West

Location: Deelen

Current Time: Jan 27, 2015 at 9:28:39 AM

Latest Report: Jan 27, 2015 at 8:55 AM


Visibility: N/A

Pressure: 30.18 "Hg

Humidity: 93%

Dew point: 34 °F

Location of AmersfoortLocation

Historic Weather in Amersfoort — Graph

°F

Amersfoort temperature yesterday

Maximum temperature yesterday: 45 °F (at 2:25 PM)
Minimum temperature yesterday: 36 °F (at 11:55 PM)
Average temperature yesterday: 40 °F

Past Weeks' High & Low Weather Summary

 TemperatureHumidityPressure
High50 °F (Jan 13, 1:25 AM)100% (Jan 12, 11:25 PM)30.39 "Hg (Jan 12, 11:25 PM)
Low21 °F (Jan 25, 3:25 AM)65% (Jan 17, 4:55 PM)29.33 "Hg (Jan 15, 1:25 PM)
Average36 °F90%29.92 "Hg
* Reported Jan 12 8:25 AM — Jan 27 8:25 AM, Amersfoort, Weather by CustomWeather, © 2014

Note: Actual official high and low records may vary slightly from our data, if they occured in-between our weather recording intervals... More about our weather records

Advertising

Amersfoort weather history for previous 24 hours

 ConditionsComfort  
Time TempWeatherWind HumidityBarometerVisibility
8:25 AM
Jan 27
36 °FOvercast.6 mph100%30.18 "HgN/A
7:55 AM36 °FOvercast.5 mph100%30.18 "HgN/A
7:25 AM36 °FPartly cloudy.6 mph100%30.15 "HgN/A
6:55 AM36 °FPassing clouds.7 mph93%30.15 "HgN/A
6:25 AM36 °FChilly.8 mph93%30.15 "HgN/A
5:55 AM37 °FLight rain. Passing clouds.12 mph87%30.18 "Hg3 mi
5:25 AM32 °FPassing clouds.7 mph100%30.15 "HgN/A
4:55 AM34 °FPassing clouds.6 mph93%30.15 "HgN/A
4:25 AM34 °FPassing clouds.5 mph93%30.15 "HgN/A
3:55 AM32 °FPassing clouds.6 mph100%30.15 "HgN/A
3:25 AM34 °FPassing clouds.3 mph100%30.15 "HgN/A
2:55 AM34 °FPassing clouds.6 mph93%30.15 "HgN/A
2:25 AM34 °FPassing clouds.6 mph93%30.15 "HgN/A
1:55 AM36 °FPassing clouds.7 mph93%30.12 "HgN/A
1:25 AM36 °FPassing clouds.7 mph93%30.12 "HgN/A
12:55 AM36 °FMostly cloudy.7 mph93%30.12 "HgN/A
12:25 AM37 °FPartly cloudy.9 mph93%30.12 "HgN/A
11:55 PM
Jan 26
36 °FPassing clouds.6 mph93%30.12 "HgN/A
11:25 PM39 °FPassing clouds.9 mph87%30.12 "HgN/A
10:55 PM37 °FLight rain. Passing clouds.8 mph93%30.12 "HgN/A
9:55 PM37 °FPassing clouds.7 mph93%30.09 "HgN/A
9:25 PM41 °FOvercast.8 mph87%30.09 "HgN/A
8:55 PM41 °FMostly cloudy.7 mph87%30.09 "HgN/A
8:25 PM41 °FMostly cloudy.8 mph87%30.09 "HgN/A
7:55 PM41 °FMostly cloudy.7 mph87%30.07 "HgN/A
7:25 PM41 °FPartly cloudy.8 mph87%30.07 "HgN/A
6:55 PM41 °FMostly cloudy.9 mph87%30.07 "HgN/A
6:25 PM41 °FPartly cloudy.8 mph93%30.07 "HgN/A
5:55 PM43 °FPartly cloudy.10 mph87%30.04 "HgN/A
5:25 PM43 °FPassing clouds.10 mph87%30.04 "HgN/A
4:55 PM45 °FBroken clouds.9 mph87%30.04 "HgN/A
4:25 PM45 °FCloudy.10 mph87%30.01 "HgN/A
3:55 PM45 °FMore clouds than sun.8 mph93%30.01 "HgN/A
3:25 PM45 °FMore clouds than sun.10 mph93%30.01 "HgN/A
2:55 PM45 °FDrizzle. Mostly cloudy.9 mph100%30.01 "Hg2 mi
2:25 PM45 °FLight rain. More clouds than sun.8 mph100%30.01 "Hg1 mi
1:55 PM43 °FDrizzle. Mostly cloudy.8 mph100%30.01 "Hg1 mi
1:25 PM43 °FDrizzle. Mostly cloudy.9 mph93%30.01 "Hg1 mi
12:55 PM41 °FDrizzle. Partly sunny.8 mph100%30.04 "Hg1 mi
12:25 PM39 °FLight rain. Mostly cloudy.9 mph100%30.04 "Hg1 mi
11:55 AM39 °FFog.10 mph100%30.07 "Hg1 mi
11:25 AM39 °FFog.10 mph100%30.07 "Hg1 mi
10:55 AM39 °FLight rain. Dense fog.10 mph100%30.07 "Hg1 mi
10:25 AM39 °FLight rain. Dense fog.10 mph100%30.09 "Hg1 mi
9:55 AM39 °FDrizzle. Partly sunny.12 mph93%30.09 "Hg1 mi
9:25 AM37 °FFog.12 mph100%30.09 "Hg1 mi
Weather by CustomWeather, © 2014

See weather overviewHow to use our weather pages